Address 0x256217d6e95a944ccd8395a8bbe925b134157906 1

 
 
Txn Hash Method
Block
From
To
Value [Txn Fee]
0xa6e3befc1c739455025f4fc0bd5c019e68fe6535f14dec3d859c9c5ae2c340f6Collect From Til...365606252022-12-08 2:39:5754 mins ago0x256217d6e95a944ccd8395a8bbe925b134157906OUT 0x78f6ef4fa55e41b816cbc0f97a2d8743ba8795d90 MATIC0.011494413835 37.173366521
0x69983ea73be2a64c85073f27576850887246ca7b3f158c39e8ff1aced415137cClaim Order365496112022-12-07 19:59:247 hrs 35 mins ago0x256217d6e95a944ccd8395a8bbe925b134157906OUT 0x86214d04286c0d853670bed2a6b1ed9bf14e39bc0 MATIC0.004084625138 30.000037739
0x77d2edf7955d3474d3ed2d8ac31a71594214b144cad4c63a56f7f46b6fb1f31dClaim Order365495462022-12-07 19:57:107 hrs 37 mins ago0x256217d6e95a944ccd8395a8bbe925b134157906OUT 0x86214d04286c0d853670bed2a6b1ed9bf14e39bc0 MATIC0.005207318059 33.468205278
0x0b17104d4f74ac7cba27af9ca898e4c006cc7f6d40cf9940c4c7af41259a3d5cClaim Order365495002022-12-07 19:55:347 hrs 38 mins ago0x256217d6e95a944ccd8395a8bbe925b134157906OUT 0x86214d04286c0d853670bed2a6b1ed9bf14e39bc0 MATIC0.004685221401 30.112612645
0xacd637cb514c6846dfbd25cb9a9b1258f2bc2396d6a5b81b2e6c6642d3c5cdf7Claim Order365494562022-12-07 19:54:067 hrs 40 mins ago0x256217d6e95a944ccd8395a8bbe925b134157906OUT 0x86214d04286c0d853670bed2a6b1ed9bf14e39bc0 MATIC0.004715447396 30.306879598
0xb8ffa9da113aa78c6fe8a7bced1bc961bbfd4284e473b0e99f9ab261714e499bPurchase NFT365485822022-12-07 19:21:478 hrs 12 mins ago0x256217d6e95a944ccd8395a8bbe925b134157906OUT Planet IX: Marketplace0 MATIC0.00551224754 31.993821732
0x1613be3807cb1c83c128d5a302c45542c523b84e6dd9dfef784c066fb9cc21a6Collect From Til...365483372022-12-07 19:13:218 hrs 21 mins ago0x256217d6e95a944ccd8395a8bbe925b134157906OUT 0x78f6ef4fa55e41b816cbc0f97a2d8743ba8795d90 MATIC0.009605418856 32.702304062
0xa34dec8686d24a2c09e97e0acc42ef349e65b9b798c0008bf8d4b44fef41b1d7Place Prospectin...365389082022-12-07 13:45:5513 hrs 48 mins ago0x256217d6e95a944ccd8395a8bbe925b134157906OUT 0x86214d04286c0d853670bed2a6b1ed9bf14e39bc0 MATIC0.019821791835 37.326644211
0x18e70cd24d7b1efe86a0b5253c9feb4c815f6a60d628289f1909655be8cb2fc7Collect From Til...365388622022-12-07 13:44:1913 hrs 50 mins ago0x256217d6e95a944ccd8395a8bbe925b134157906OUT 0x78f6ef4fa55e41b816cbc0f97a2d8743ba8795d90 MATIC0.010160404308 32.906167097
0x7d97a53e6d073f3a7d4f88293d690696b635962542a790bf5a2f49f6204f1d19Collect From Til...365299812022-12-07 8:31:3119 hrs 2 mins ago0x256217d6e95a944ccd8395a8bbe925b134157906OUT 0x78f6ef4fa55e41b816cbc0f97a2d8743ba8795d90 MATIC0.014308137799 50.00205416
0x9bed25015f9d2b606c2b24541703e45c07eb907a88b91842b8f420f1575b60d4Collect From Til...365207992022-12-07 3:04:351 day 29 mins ago0x256217d6e95a944ccd8395a8bbe925b134157906OUT 0x78f6ef4fa55e41b816cbc0f97a2d8743ba8795d90 MATIC0.016578781337 56.306718711
0x54b689a2f41eae76dcd7d7882ff4f96d02f522a76a56303eddbfdc790b8a73c5Collect From Til...365196842022-12-07 2:21:071 day 1 hr ago0x256217d6e95a944ccd8395a8bbe925b134157906OUT 0x78f6ef4fa55e41b816cbc0f97a2d8743ba8795d90 MATIC0.005495277933 44.833060839
0xf2bfcdfe9f6a8e0a1c326b565e383e05347863d231cf79b20ab9f076e215b286Collect From Til...365082902022-12-06 19:42:161 day 7 hrs ago0x256217d6e95a944ccd8395a8bbe925b134157906OUT 0x78f6ef4fa55e41b816cbc0f97a2d8743ba8795d90 MATIC0.009327069327 30.979942496
0xc1d517f06d847463194127ca45b213d6b4149b1440426cc36a859c42c7a84dceStake365010012022-12-06 15:28:171 day 12 hrs ago0x256217d6e95a944ccd8395a8bbe925b134157906OUT 0x4f0ee43495f36e7665716b4d8d8701bc232e462b0 MATIC0.010012206928 65.282242245
0xa2f3d733dbeb5ca31edea350edef292f27dbe4f4cd7d9621d4a11473b4547d3cApprove365009892022-12-06 15:27:491 day 12 hrs ago0x256217d6e95a944ccd8395a8bbe925b134157906OUT Planet IX: IXT Token0 MATIC0.003020870477 65.282242245
0xd204642a1c4e965de2d7f8dcbab03bcdca2f589817ce7c7846de4ba29e823e40Collect From Til...365009192022-12-06 15:25:251 day 12 hrs ago0x256217d6e95a944ccd8395a8bbe925b134157906OUT 0x78f6ef4fa55e41b816cbc0f97a2d8743ba8795d90 MATIC0.009530229017 67.073194713
0xdf7ac52d479f809ae660bafe5313a17b7489ba2468b270519f2a7efc98819e37Collect From Til...364984382022-12-06 13:58:021 day 13 hrs ago0x256217d6e95a944ccd8395a8bbe925b134157906OUT 0x78f6ef4fa55e41b816cbc0f97a2d8743ba8795d90 MATIC0.009054426866 30.024793547
0xd5d00cb8a7ce859461eb0ddbc262253f8716673617676d2ec6998229d9f88368Collect From Til...364891832022-12-06 8:34:301 day 19 hrs ago0x256217d6e95a944ccd8395a8bbe925b134157906OUT 0x78f6ef4fa55e41b816cbc0f97a2d8743ba8795d90 MATIC0.009695085549 31.41950601
0x777a7b3c9c6fb636cd41a16104cad177b7820a7c6b3e0ee2b331357d693802ceCollect From Til...364789642022-12-06 2:36:082 days 58 mins ago0x256217d6e95a944ccd8395a8bbe925b134157906OUT 0x78f6ef4fa55e41b816cbc0f97a2d8743ba8795d90 MATIC0.009624909472 31.137691269
0xb220571be9afec020417914c0bcb7130acc1e6b2fc0f5dbf34da6a5ab3edc50bClaim Order364666172022-12-05 19:25:512 days 8 hrs ago0x256217d6e95a944ccd8395a8bbe925b134157906OUT 0x86214d04286c0d853670bed2a6b1ed9bf14e39bc0 MATIC0.004571493607 33.575903811
0x9eb6287571e7cd282cdeb60cb14f238b50554b92fda8c1af434fd03a16d3bedbClaim Order364665892022-12-05 19:24:552 days 8 hrs ago0x256217d6e95a944ccd8395a8bbe925b134157906OUT 0x86214d04286c0d853670bed2a6b1ed9bf14e39bc0 MATIC0.005325627011 34.228594454
0xb554e7a31dddf845db4ff0bb0aef3ba73f4d5d5fe4ced13b56414c920caa60e8Claim Order364665492022-12-05 19:23:312 days 8 hrs ago0x256217d6e95a944ccd8395a8bbe925b134157906OUT 0x86214d04286c0d853670bed2a6b1ed9bf14e39bc0 MATIC0.005282278874 33.949989553
0x1c5b9b440eaabb13f79d862e2a5e7721733954f11ca1769051e9619bd5e37255Claim Order364665132022-12-05 19:22:192 days 8 hrs ago0x256217d6e95a944ccd8395a8bbe925b134157906OUT 0x86214d04286c0d853670bed2a6b1ed9bf14e39bc0 MATIC0.005468791888 35.14873635
0x30f007ab06bd5539d4db051dc8419272faca5aca89f5fa7804ac73f144f2b45cCollect From Til...364656912022-12-05 18:51:552 days 8 hrs ago0x256217d6e95a944ccd8395a8bbe925b134157906OUT 0x78f6ef4fa55e41b816cbc0f97a2d8743ba8795d90 MATIC0.009498450004 30.000000015
0x532a77f1a640db5f826cd7cbdd3ffa1e30ed28beb62be61bb30559412f49c06eSwap364593692022-12-05 15:10:102 days 12 hrs ago0x256217d6e95a944ccd8395a8bbe925b134157906OUT Metamask: Swap Router5 MATIC0.045572816948 217.577042188
[ Download CSV Export 
Latest 6 internal transactions
Parent Txn Hash Block From To Value
0x3f4ee56f6f365b600548f8e63c9d300a321e968d1fc1f616fd023c63246bda12364100742022-12-04 9:56:303 days 17 hrs ago 0xc590175e458b83680867afd273527ff58f74c02b0x256217d6e95a944ccd8395a8bbe925b134157906108.688817834715879187 MATIC
0xd1ca67bedf4c618e6eee81965963843948d6ae4dde6dd88e9acf4f62b234bccb363614282022-12-03 4:37:324 days 22 hrs ago 0xc590175e458b83680867afd273527ff58f74c02b0x256217d6e95a944ccd8395a8bbe925b1341579062.135163927527139253 MATIC
0x9b0a2f6025c26a26911febaaf04ffc5a2ac20820b2bad3bef735bef4c6e5a5d2356912122022-11-16 19:55:3121 days 7 hrs ago 0xc590175e458b83680867afd273527ff58f74c02b0x256217d6e95a944ccd8395a8bbe925b1341579061.438228167794222777 MATIC
0x43d61148d1cfdf3bce236a5d1b99e1aa6a1411e8ff3542d58542c8114b04cf5b299085692022-06-23 13:56:23167 days 13 hrs ago 0xc590175e458b83680867afd273527ff58f74c02b0x256217d6e95a944ccd8395a8bbe925b1341579063.873828226040628603 MATIC
0xc2fd881e714bd47dfb0052e779cb24071ea4cfd637e8e9af5041234d4269864d252877762022-02-24 10:14:04286 days 17 hrs ago 0x2334bc478c60bee7674529580659cd6c115cbcbc0x256217d6e95a944ccd8395a8bbe925b1341579061 MATIC
0xa17030b6110719e9f73f2346a60b0594ac10ac31b113aaee6594bb44113c08c7217229982021-11-23 22:48:08379 days 4 hrs ago 0x7d1288e5dbc91b9d2e7be736cc789114e8d58f690x256217d6e95a944ccd8395a8bbe925b1341579060.1 MATIC
[ Download CSV Export 
Loading

Contract Name:
0 MATIC

Compiler Version
0

Optimization Enabled:
0 MATIC

Other Settings:
-NA-
Block Transaction Gas Used Reward
Age Block Fee Address BC Fee Address Voting Power Jailed Incoming
Block Uncle Number Difficulty Gas Used Reward
Loading
Loading
Make sure to use the "Vote Down" button for any spammy posts, and the "Vote Up" for interesting conversations.